Wind_Speed
25 23 21 21 21 22 23 23 23 23 24 26 27 26 26 25 25 26 25 24 24 23 23 23 22 22 22 23 24 24 24 24 24 24 24 24 25 26 26 26 26 26 26 26
27 24 24 23 23 22 23 23 24 25 26 25 28 27 26 27 27 27 26 25 25 25 24 24 24 25 25 25 26 26 27 27 26 26 27 27 27 27 27 27 27 27 27 28
28 25 25 27 25 24 24 24 25 26 28 29 32 30 29 30 30 29 28 28 27 27 26 26 26 26 27 27 28 28 29 29 29 29 29 29 29 29 29 28 28 29 29 30
29 27 29 27 25 26 26 27 28 30 32 32 34 33 33 33 32 32 30 29 28 28 28 28 28 28 29 29 30 30 31 31 31 31 31 31 31 31 31 30 31 31 31 30
30 28 28 26 26 27 27 28 28 31 34 35 33 34 35 34 33 33 32 31 30 30 30 30 30 30 31 31 32 32 33 33 33 33 33 33 33 33 33 33 33 33 32 31
31 30 28 28 27 26 27 30 31 34 35 34 34 34 35 35 34 33 32 32 32 32 32 31 31 31 31 32 32 33 34 35 35 34 34 34 34 34 35 35 35 34 34 33
32 31 30 30 31 29 30 31 33 34 35 33 32 34 35 34 34 34 32 31 32 32 32 32 31 31 31 32 33 34 35 35 36 36 35 35 35 35 36 35 35 35 35 34
32 31 32 32 33 33 32 33 34 34 35 34 34 34 34 34 33 32 31 31 32 32 32 32 32 32 32 32 33 34 34 35 36 36 37 36 36 36 36 36 36 35 35 34
30 32 33 33 34 34 34 35 35 35 35 35 34 34 34 34 34 33 33 33 33 33 33 32 32 32 33 33 34 34 35 35 35 36 36 36 36 36 35 35 35 35 34 34
35 35 35 35 35 34 35 36 36 36 35 35 35 34 33 33 33 33 34 34 34 33 33 33 33 32 33 33 34 34 34 35 35 35 35 36 35 35 35 34 34 34 34 34
36 36 36 36 36 36 36 36 36 36 35 35 34 34 33 33 33 33 33 34 34 34 34 34 33 33 33 33 33 34 34 35 35 35 35 35 35 35 34 34 35 34 35 35
35 37 38 36 36 35 35 35 35 35 35 34 34 33 33 32 33 33 33 34 34 33 34 34 34 34 33 33 34 33 34 34 35 35 35 35 34 34 34 34 34 34 35 34
35 36 37 35 35 34 34 34 34 34 34 34 33 33 33 33 33 33 33 33 34 34 35 35 34 34 34 34 34 34 34 35 35 35 35 35 34 34 34 34 34 34 32 33
33 34 34 33 33 33 34 34 33 33 33 33 33 33 33 32 32 33 33 33 34 34 35 35 35 35 35 35 35 35 35 35 35 35 35 34 34 34 34 33 33 32 31 32
30 31 32 31 31 31 33 34 33 33 33 33 33 33 33 32 33 33 33 33 33 34 34 35 35 35 35 35 35 35 35 34 34 34 34 34 34 34 34 33 32 32 31 31
29 30 31 31 31 30 31 31 32 32 32 32 31 31 32 32 33 33 33 33 33 33 34 34 35 35 35 35 35 34 34 33 33 33 34 33 33 34 33 32 32 32 31 31
28 28 30 31 31 31 32 32 31 31 30 30 30 30 31 32 32 32 33 33 33 33 34 34 34 34 34 33 33 33 32 32 33 33 33 33 33 32 33 32 31 32 32 30
27 26 27 28 29 30 30 30 29 29 29 29 30 31 31 32 32 33 33 33 33 33 33 33 33 34 33 33 33 33 32 32 33 33 33 33 33 32 32 32 32 32 31 31
26 26 26 26 26 26 27 28 29 29 30 30 31 31 31 31 32 32 32 32 32 32 32 33 34 34 34 34 34 33 33 33 33 33 33 33 32 31 31 31 31 31 31 31
24 24 25 25 24 25 25 25 26 27 29 29 29 29 30 30 31 31 31 32 31 32 32 32 32 32 32 32 32 32 32 33 32 32 32 31 31 31 31 30 30 30 29 29
22 22 23 23 23 22 23 24 24 25 26 28 28 29 29 29 29 30 30 30 31 31 31 32 32 32 32 31 31 30 31 31 31 31 30 30 30 30 29 29 28 28 28 28
21 21 21 21 21 22 22 23 23 24 25 26 26 27 28 29 29 30 30 30 30 30 30 31 31 31 30 29 28 29 29 29 29 29 28 28 28 28 27 27 27 27 27 28
20 20 21 21 22 22 22 23 23 23 24 24 26 27 27 28 28 28 28 28 28 27 28 28 28 28 27 27 28 28 28 28 27 26 26 26 26 26 26 26 26 25 26 26
20 20 20 20 21 21 21 22 23 23 23 23 24 24 25 25 26 26 27 27 27 27 26 26 26 26 26 26 25 26 26 26 25 24 24 24 24 24 24 23 24 24 24 24
18 18 19 20 20 21 21 21 21 22 22 23 24 24 23 23 23 24 25 25 25 26 26 25 25 25 24 24 24 24 24 24 24 24 24 23 24 24 23 23 24 24 24 23
17 17 18 19 19 19 20 20 20 20 21 21 22 22 22 21 21 21 22 22 22 22 23 23 23 23 22 22 22 23 23 23 23 23 23 23 23 23 23 23 24 24 24 23
16 17 18 18 18 18 18 19 19 19 19 20 20 20 20 20 20 20 21 21 21 21 22 22 21 22 22 22 23 23 22 22 23 23 22 23 23 23 23 24 25 25 25 25
Wind_Direction
240 240 246 254 257 253 251 248 251 257 259 262 266 268 271 275 276 277 279 278 279 279 280 281 281 280 281 281 282 284 286 287 288 289 290 292 294 294 294 292 291 292 291 289
240 240 245 251 253 252 253 252 252 254 257 261 263 265 270 274 275 275 276 277 277 278 279 279 280 278 278 279 280 282 284 287 287 288 289 291 292 292 292 291 291 291 291 290
244 244 247 250 251 251 251 252 250 251 254 257 262 266 269 270 271 274 275 276 277 276 276 277 277 277 276 278 280 281 283 285 286 286 287 289 290 291 290 289 289 290 291 290
249 247 248 248 250 252 252 252 252 252 253 254 260 264 268 269 269 271 274 274 274 275 275 274 274 275 275 277 279 280 282 283 285 285 286 287 288 289 288 288 289 290 291 290
248 249 251 253 253 253 254 254 254 255 256 257 261 264 266 267 267 269 271 271 271 272 273 274 274 274 275 276 278 279 280 281 283 284 285 286 287 287 287 287 288 288 289 289
250 250 251 254 255 254 254 256 255 256 260 262 264 266 268 269 269 269 269 270 271 272 273 274 274 275 275 276 277 278 280 281 283 284 284 285 285 286 286 287 287 287 288 287
253 252 254 254 252 252 254 256 257 260 264 265 266 268 270 270 269 269 269 269 270 271 272 273 274 274 275 276 277 279 281 282 283 285 285 285 285 286 286 286 286 286 287 287
252 251 251 252 252 251 252 255 258 262 266 269 269 268 269 269 269 269 268 269 269 271 272 273 274 275 275 276 278 280 281 283 284 285 285 285 285 286 286 286 285 285 285 285
251 248 249 251 252 253 254 257 260 263 266 268 268 268 267 267 268 268 268 269 269 271 272 273 274 275 276 277 279 281 282 283 284 285 284 284 284 285 285 284 284 283 283 283
248 248 248 251 253 254 255 257 259 262 266 267 267 267 267 266 266 267 268 268 269 270 272 273 274 275 277 279 280 281 283 284 286 286 286 284 285 285 284 283 284 283 282 282
248 248 249 251 253 255 256 257 259 261 264 267 267 267 267 267 267 267 269 269 269 270 272 273 275 276 278 280 281 282 283 284 285 285 287 287 286 286 286 285 285 284 283 282
248 250 250 252 254 255 258 260 262 263 265 267 267 266 266 267 267 267 268 268 269 270 272 273 275 277 278 280 282 283 284 284 285 286 286 286 287 286 287 288 288 289 286 283
249 252 253 256 256 256 258 261 262 263 264 265 265 265 265 266 267 267 267 268 269 271 272 273 275 277 278 280 282 283 284 285 285 287 288 287 286 286 287 288 289 290 287 286
250 251 252 255 257 258 260 262 263 264 265 264 265 265 266 266 266 266 267 268 269 271 272 273 275 277 278 280 281 282 284 284 285 287 288 288 287 286 287 288 288 288 288 287
251 252 252 255 259 260 261 263 265 266 266 266 266 265 266 267 266 267 268 269 270 271 272 274 276 278 280 281 281 282 283 284 285 286 287 286 286 286 286 287 287 288 288 289
252 253 254 257 261 263 264 265 266 267 267 267 267 266 267 267 267 268 269 270 272 272 273 274 276 279 281 281 282 282 283 284 284 285 286 285 286 286 286 286 287 288 287 286
256 255 256 258 261 263 264 265 266 266 266 266 266 266 267 268 268 269 269 271 273 273 274 275 276 278 280 281 282 283 283 283 283 284 285 285 285 285 286 286 286 286 287 286
261 262 262 260 261 261 262 264 265 265 266 266 266 266 267 268 268 269 270 272 273 273 274 275 276 278 279 280 282 283 283 283 284 285 285 284 284 284 284 284 285 285 285 285
261 263 265 265 265 264 265 266 266 265 266 266 266 267 268 270 270 271 271 273 274 275 275 276 278 278 279 280 280 280 281 284 285 285 285 284 283 284 286 284 283 284 284 283
263 264 267 269 269 269 269 269 269 268 268 270 270 269 270 271 272 272 273 273 274 274 275 276 277 278 278 280 279 279 280 282 284 285 285 284 283 282 284 285 285 285 284 285
261 263 265 267 267 268 269 272 272 271 270 269 270 270 269 269 270 272 273 274 274 276 276 277 278 279 281 281 280 281 282 282 282 283 284 284 283 283 283 284 286 287 287 287
262 263 264 265 266 267 269 272 274 274 274 275 275 275 274 273 273 273 275 277 277 276 277 277 279 281 282 282 282 283 282 282 283 282 282 282 283 283 283 284 286 287 288 288
268 269 269 269 271 271 273 274 275 276 277 277 277 278 278 277 276 276 277 278 279 279 278 279 280 282 281 282 283 283 283 284 285 284 283 283 283 283 283 284 286 286 287 288
268 270 273 273 275 275 275 277 277 278 278 278 278 278 279 280 278 277 277 277 277 277 279 280 280 280 282 283 283 283 283 284 284 283 282 282 284 284 284 285 285 286 288 288
267 270 273 276 277 279 279 279 279 280 279 279 279 280 281 281 280 278 277 277 277 277 279 280 280 280 281 282 281 282 283 283 283 282 281 281 282 283 283 283 284 287 287 286
270 272 275 276 278 279 279 280 282 284 284 282 281 281 282 284 284 283 281 280 280 280 281 281 280 280 280 281 281 282 283 284 283 282 281 281 282 281 281 281 282 284 286 287
274 275 278 279 280 281 281 283 285 286 287 286 286 285 285 284 284 284 284 283 282 282 281 281 282 281 281 282 282 283 283 282 281 283 284 284 284 283 283 284 285 286 286 285
Height
5863 5866 5867 5868 5869 5870 5871 5873 5875 5875 5874 5872 5870 5867 5867 5867 5867 5867 5867 5867 5866 5866 5866 5866 5866 5865 5865 5864 5864 5864 5863 5863 5862 5861 5860 5859 5858 5856 5855 5854 5853 5852 5850 5848
5855 5858 5860 5861 5863 5864 5865 5866 5867 5868 5866 5864 5862 5861 5861 5861 5861 5860 5861 5861 5861 5861 5860 5860 5860 5860 5859 5859 5858 5858 5857 5856 5855 5855 5854 5852 5851 5850 5848 5847 5846 5844 5843 5841
5847 5850 5852 5854 5857 5858 5858 5859 5859 5859 5859 5857 5855 5854 5854 5855 5854 5854 5854 5854 5854 5854 5854 5854 5854 5853 5853 5853 5852 5851 5851 5850 5849 5848 5847 5846 5844 5842 5841 5839 5838 5837 5835 5833
5838 5842 5842 5848 5849 5849 5849 5850 5850 5849 5849 5848 5848 5847 5847 5847 5847 5847 5847 5847 5847 5847 5847 5847 5847 5846 5846 5846 5845 5845 5844 5843 5842 5841 5840 5838 5837 5835 5833 5832 5830 5829 5827 5825
5830 5832 5834 5839 5840 5841 5840 5840 5841 5839 5839 5840 5840 5839 5838 5838 5838 5839 5839 5839 5840 5840 5839 5839 5839 5839 5839 5838 5838 5837 5836 5835 5834 5833 5831 5830 5829 5827 5825 5823 5822 5820 5818 5816
5822 5824 5827 5831 5831 5831 5832 5831 5830 5829 5829 5830 5831 5831 5830 5830 5830 5830 5830 5831 5831 5831 5831 5831 5831 5831 5831 5830 5830 5829 5828 5827 5826 5824 5823 5821 5820 5818 5816 5814 5813 5811 5809 5807
5812 5814 5817 5819 5819 5821 5823 5822 5820 5820 5821 5820 5821 5822 5821 5821 5821 5821 5821 5823 5823 5823 5823 5823 5823 5822 5822 5822 5821 5820 5819 5818 5817 5815 5814 5812 5810 5809 5807 5805 5803 5801 5800 5798
5804 5806 5809 5807 5808 5810 5810 5811 5812 5812 5812 5812 5813 5813 5812 5812 5812 5812 5812 5814 5814 5814 5815 5815 5815 5814 5814 5813 5812 5811 5810 5809 5808 5806 5804 5803 5801 5799 5797 5795 5793 5792 5790 5789
5795 5796 5797 5798 5798 5800 5801 5802 5803 5804 5804 5804 5804 5804 5804 5804 5804 5805 5805 5805 5806 5806 5806 5806 5806 5806 5805 5804 5803 5802 5801 5800 5798 5797 5794 5793 5791 5789 5787 5785 5784 5782 5781 5779
5784 5785 5786 5788 5789 5790 5792 5793 5794 5795 5795 5795 5794 5795 5795 5795 5795 5796 5796 5797 5797 5797 5797 5797 5797 5796 5796 5795 5794 5793 5791 5790 5788 5787 5785 5783 5781 5779 5778 5776 5774 5773 5771 5770
5774 5776 5778 5778 5780 5782 5782 5784 5785 5785 5785 5785 5785 5785 5786 5786 5787 5787 5787 5787 5788 5788 5788 5788 5788 5787 5787 5786 5784 5783 5782 5780 5779 5777 5775 5773 5771 5770 5768 5767 5765 5763 5762 5760
5764 5766 5768 5769 5771 5772 5773 5774 5775 5776 5776 5776 5776 5776 5777 5778 5778 5779 5779 5778 5778 5779 5779 5778 5778 5778 5777 5776 5775 5774 5772 5771 5769 5767 5766 5764 5762 5761 5759 5758 5756 5753 5751 5749
5755 5756 5758 5761 5762 5762 5763 5764 5765 5765 5766 5766 5767 5767 5768 5769 5769 5770 5770 5770 5770 5770 5770 5769 5769 5768 5768 5767 5766 5764 5763 5761 5759 5758 5756 5754 5753 5751 5750 5749 5746 5744 5742 5740
5747 5748 5750 5752 5753 5753 5754 5754 5755 5756 5757 5757 5758 5758 5759 5760 5760 5761 5761 5761 5761 5761 5760 5760 5759 5759 5758 5757 5756 5755 5753 5751 5750 5748 5746 5745 5743 5742 5741 5739 5737 5735 5734 5732
5739 5740 5742 5743 5743 5744 5745 5746 5746 5747 5748 5748 5749 5750 5750 5751 5751 5751 5752 5752 5751 5751 5751 5750 5750 5749 5748 5747 5746 5745 5743 5742 5740 5738 5737 5736 5734 5732 5731 5730 5728 5726 5724 5723
5731 5732 5733 5734 5735 5736 5737 5737 5738 5739 5739 5740 5740 5741 5742 5742 5742 5742 5743 5743 5742 5742 5742 5741 5741 5740 5739 5738 5736 5735 5733 5732 5730 5728 5727 5726 5725 5723 5721 5720 5719 5717 5716 5715
5723 5724 5725 5726 5727 5728 5729 5729 5730 5730 5731 5731 5732 5732 5733 5733 5733 5733 5733 5734 5733 5733 5732 5732 5731 5730 5729 5728 5727 5725 5724 5722 5720 5719 5718 5716 5715 5713 5712 5711 5710 5709 5707 5706
5717 5717 5718 5719 5720 5721 5721 5722 5722 5722 5723 5723 5724 5724 5724 5724 5724 5724 5724 5724 5724 5722 5722 5722 5721 5721 5720 5718 5717 5716 5714 5713 5711 5710 5708 5707 5706 5704 5703 5702 5701 5699 5698 5697
5711 5711 5712 5712 5712 5713 5713 5714 5714 5714 5714 5715 5716 5715 5715 5715 5715 5715 5715 5714 5714 5713 5713 5712 5712 5711 5710 5708 5708 5706 5705 5704 5702 5701 5699 5698 5697 5695 5694 5693 5692 5690 5689 5688
5705 5705 5705 5705 5705 5706 5706 5706 5706 5706 5707 5707 5707 5707 5707 5707 5706 5706 5706 5705 5705 5704 5704 5703 5703 5701 5700 5699 5698 5696 5696 5695 5693 5691 5690 5688 5687 5687 5686 5684 5683 5682 5681 5680
5699 5700 5700 5700 5699 5699 5699 5699 5699 5699 5699 5698 5698 5698 5698 5698 5697 5697 5697 5696 5696 5695 5695 5694 5693 5693 5691 5690 5689 5688 5686 5685 5684 5682 5681 5680 5679 5678 5677 5676 5675 5673 5672 5671
5693 5694 5694 5694 5693 5693 5692 5692 5692 5692 5691 5691 5690 5690 5689 5689 5689 5689 5688 5688 5687 5687 5686 5685 5685 5684 5682 5681 5680 5679 5678 5676 5675 5673 5672 5671 5670 5669 5668 5667 5666 5665 5663 5662
5687 5687 5687 5687 5687 5687 5686 5686 5686 5685 5685 5684 5683 5682 5681 5681 5680 5680 5680 5679 5679 5678 5677 5677 5676 5675 5674 5673 5671 5670 5669 5668 5666 5665 5663 5662 5661 5661 5660 5659 5658 5657 5656 5654
5682 5682 5682 5681 5681 5681 5680 5680 5679 5678 5678 5677 5676 5675 5674 5673 5672 5672 5672 5672 5671 5670 5670 5669 5668 5667 5666 5665 5664 5662 5661 5660 5659 5657 5656 5654 5654 5653 5652 5651 5650 5649 5648 5647
5676 5677 5676 5676 5675 5675 5674 5673 5672 5672 5671 5670 5669 5668 5667 5666 5665 5665 5664 5664 5664 5663 5662 5661 5660 5659 5658 5657 5656 5655 5654 5652 5651 5650 5649 5648 5647 5646 5645 5644 5643 5641 5640 5639
5671 5671 5671 5671 5670 5669 5668 5667 5666 5665 5665 5664 5663 5662 5661 5660 5658 5658 5657 5657 5656 5656 5655 5654 5653 5652 5651 5650 5649 5648 5646 5645 5644 5642 5642 5641 5640 5639 5638 5637 5636 5634 5633 5632
5666 5666 5666 5665 5664 5664 5663 5662 5661 5660 5659 5658 5657 5656 5655 5654 5653 5652 5651 5651 5650 5649 5648 5647 5646 5645 5644 5643 5642 5640 5639 5638 5637 5636 5635 5634 5632 5631 5631 5630 5629 5627 5626 5625